Terminal Aerodrome Forecast
Issued by NWS

Home | Current Version | Previous Version | Graphics & Text | Print | Product List | Glossary On
Versions: 1 2 3 4 5 6 7 8 9 10 11 12 13 14 15 16 17 18 19
000
FTUS42 KMHX 261500 AAC
TAFPGV
TAF AMD
KPGV 261515Z 2615/2712 VRB03KT P6SM SCT025
     FM261700 18005KT P6SM SCT030
     FM262200 18005KT P6SM SCT040
      AMD LTD TO CLD VIS AND WIND=

USA.gov is the U.S. government's official web portal to all federal, state and local government web resources and services.